weather.gov     
National Weather Service

Regional Weather Roundup
NWS Homepage
This page is being discontinued on March 12, 2014.
The same data is available at this site. Please update your bookmarks.
Thank you, and we apologize for the inconvenience.
Please send an email to SR-SRH.Webmaster@noaa.gov with any concerns.


Current Version
Previous Version:    01  02  03  04  05  06  07  08  09  10  11  12  13  14  15  16  17  18  19  20  21  22  23  24  25  26  27  28  29  30  
   31  32  33  34  35  36  37  38  39  40  41  42  43  44  45  46  47  48  49  50  51  52  53  54  55  56  57  58  59  60  
[Printable]
521
ASUS43 KBIS 171859
RWRBIS

NWR BROADCAST TEXT
NATIONAL WEATHER SERVICE BISMARCK ND
200 PM CDT THU APR 17 2014

NOTE: "FAIR" INDICATES FEW OR NO CLOUDS BELOW 12,000 FEET WITH NO
SIGNIFICANT WEATHER AND/OR OBSTRUCTIONS TO VISIBILITY.


CITY           SKY/WX    TMP DP  RH WIND       PRES   REMARKS
WILLISTON      PTSUNNY   42  26  53 SE17G26   30.12F
MINOT          CLOUDY    39  15  37 E17       30.22F
MINOT AFB      NOT AVBL
BISMARCK       CLOUDY    42  17  36 S12       30.24F
DICKINSON      CLOUDY    36  25  64 SE22      30.11F
GARRISON         N/A     38  16  40 S12       30.21F
HETTINGER ARPT CLOUDY    32  26  78 SE20G26   30.14F
JAMESTOWN      NOT AVBL
CARRINGTON     FAIR      37   9  30 SE8       30.28F
CROSBY         CLOUDY    37  23  56 SE21G29   30.14F
HARVEY         FAIR      37  14  38 SE7       30.26F
LINTON         FAIR      43  18  36 SE10G16   30.23F
OAKES          FAIR      41   9  26 E3        30.29F
RUGBY          FAIR      36  14  41 SE7       30.26F
WATFORD CITY   MOCLDY    39  23  52 SE20G29   30.10F
$$

CITY           SKY/WX    TMP DP  RH WIND       PRES   REMARKS
GRAND FORKS    SUNNY     40  11  30 VRB7      30.33F
GRAND FORKS AF NOT AVBL
DEVILS LAKE    SUNNY     37   9  30 SE8       30.29F
FARGO          SUNNY     42  14  32 MISG      30.31F
GRAFTON        FAIR      36   7  30 NE10      30.34F
GWINNER        CLEAR     43  12  28 N7        30.31S
LANGDON        FAIR      39   5  24 SE8       30.29F
$$

CITY           SKY/WX    TMP DP  RH WIND       PRES   REMARKS
ABERDEEN       SUNNY     43  16  33 N7        30.29F
MOBRIDGE       PTSUNNY   43  17  35 S17       30.21F
RAPID CITY     MOSUNNY   49  33  54 S21G28    30.06F
GLASGOW        PTSUNNY   50  29  44 SE15G30   29.95F
SIDNEY         PTSUNNY   46  28  49 SE20      30.08F
WOLF POINT     PTSUNNY   50  28  42 E15G22    30.01F
GLENDIVE       CLOUDY    46  30  53 E12       30.03F
MILES CITY     MOSUNNY   55  34  45 SE8       29.95F
BAKER          MOSUNNY   46  33  60 SE22G30   30.04F
$$

CITY           SKY/WX    TMP DP  RH WIND       PRES   REMARKS
BILLINGS       MOSUNNY   55  32  41 VRB3      29.90F
GREAT FALLS    CLOUDY    50  32  50 SE13      29.83F
$$





U.S. Dept. of Commerce
NOAA National Weather Service
1325 East West Highway
Silver Spring, MD 20910
E-mail: w-nws.webmaster@noaa.gov
Page last modified: May 16, 2007
NATIONAL WEATHER SERVICE: for Safety, for Work, for Fun - FOR LIFE